Total_Precipitation_Accumulation
0.03 0.00 0.00 0.01 0.00 0.00 0.00 0.00 0.00 0.00 0.00 0.00 0.00 0.00 0.00 0.01 0.11 0.10 0.14 0.07 0.01 0.00 0.00 0.00 0.01 0.02 0.04 0.10 0.40 0.74 0.90 1.20 1.16 0.66 0.54 0.58 0.60 0.51 0.67 0.71 0.98 1.28 1.58 1.44
0.04 0.04 0.00 0.00 0.00 0.00 0.02 0.02 0.00 0.00 0.00 0.00 0.00 0.00 0.00 0.00 0.00 0.02 0.03 0.03 0.02 0.00 0.00 0.01 0.03 0.06 0.12 0.24 0.52 0.62 0.49 0.35 0.21 0.18 0.29 0.42 0.52 0.55 0.51 0.61 0.81 0.91 1.43 1.44
0.09 0.03 0.00 0.00 0.00 0.01 0.01 0.01 0.00 0.00 0.00 0.02 0.02 0.01 0.00 0.00 0.01 0.01 0.01 0.01 0.01 0.01 0.00 0.02 0.06 0.13 0.17 0.15 0.16 0.14 0.11 0.09 0.13 0.16 0.38 0.61 0.92 0.85 0.71 0.63 0.63 0.78 1.16 1.58
0.21 0.04 0.02 0.03 0.02 0.01 0.06 0.00 0.00 0.02 0.08 0.10 0.05 0.06 0.00 0.00 0.00 0.00 0.00 0.00 0.01 0.03 0.02 0.03 0.02 0.02 0.01 0.03 0.14 0.15 0.15 0.17 0.26 0.30 0.40 0.55 0.54 0.43 0.28 0.31 0.43 0.55 1.13 1.71
0.33 0.21 0.24 0.22 0.05 0.02 0.07 0.00 0.01 0.01 0.02 0.08 0.07 0.12 0.03 0.01 0.01 0.00 0.00 0.01 0.00 0.01 0.00 0.00 0.00 0.01 0.06 0.09 0.16 0.18 0.17 0.21 0.32 0.38 0.43 0.76 0.84 0.87 0.89 1.03 1.18 1.25 1.49 1.95
0.10 0.03 0.06 0.05 0.00 0.01 0.02 0.02 0.03 0.05 0.09 0.22 0.04 0.10 0.05 0.03 0.11 0.09 0.14 0.08 0.04 0.04 0.03 0.01 0.03 0.07 0.09 0.13 0.18 0.15 0.27 0.43 0.74 0.99 1.16 1.33 1.56 1.63 1.61 1.60 1.62 1.76 1.94 2.41
0.07 0.06 0.05 0.03 0.12 0.05 0.05 0.04 0.14 0.31 0.24 0.12 0.06 0.07 0.03 0.18 0.25 0.35 0.32 0.30 0.30 0.11 0.09 0.09 0.10 0.11 0.15 0.15 0.19 0.42 0.90 1.26 1.28 1.28 1.23 1.20 1.32 1.41 1.07 0.91 0.93 1.04 1.46 1.61
0.06 0.19 0.07 0.05 0.27 0.12 0.05 0.05 0.10 0.37 0.22 0.19 0.12 0.11 0.12 0.40 0.31 0.65 0.33 0.59 0.42 0.19 0.20 0.18 0.21 0.22 0.24 0.25 0.41 0.92 0.94 0.83 0.74 0.80 0.88 1.05 1.06 1.19 1.05 0.96 1.32 1.29 1.50 1.65
0.16 0.19 0.08 0.04 0.05 0.07 0.09 0.08 0.05 0.23 0.29 0.39 0.13 0.14 0.28 0.28 0.15 0.61 0.41 0.52 0.77 0.28 0.32 0.34 0.31 0.30 0.34 0.37 0.43 0.43 0.41 0.50 0.55 0.55 0.67 1.00 1.23 1.26 1.55 2.03 2.53 2.59 2.39 2.54
0.21 0.26 0.10 0.12 0.08 0.05 0.04 0.04 0.11 0.29 0.79 0.62 0.23 0.23 0.43 0.33 0.21 0.44 0.94 0.64 0.85 0.50 0.41 0.46 0.58 0.58 0.43 0.42 0.35 0.35 0.41 0.45 0.52 0.57 0.80 1.06 1.52 1.90 2.18 2.33 2.53 2.97 3.40 3.40
0.13 0.30 0.18 0.18 0.26 0.06 0.04 0.08 0.14 0.25 0.37 0.71 0.79 0.70 0.87 0.62 0.43 0.48 0.64 1.18 0.74 0.77 0.53 0.64 0.99 0.99 0.74 0.64 0.55 0.54 0.63 0.69 0.79 1.00 1.17 1.55 2.09 2.17 2.62 2.85 2.83 3.15 3.65 3.71
0.10 0.21 0.17 0.04 0.10 0.04 0.05 0.09 0.14 0.47 0.58 0.67 1.24 1.89 1.11 0.73 0.61 0.59 0.69 1.17 1.22 0.90 0.83 0.61 0.59 0.84 1.24 1.17 0.82 0.69 0.75 1.04 1.57 2.04 2.37 2.39 2.71 2.96 2.82 3.00 2.92 2.67 3.68 3.90
0.18 0.47 0.61 0.36 0.17 0.11 0.13 0.06 0.13 0.28 0.36 0.68 1.35 1.80 1.57 1.06 0.81 0.78 1.09 0.97 0.86 1.00 1.07 1.17 1.07 0.86 0.73 1.09 1.23 0.93 1.07 1.84 2.39 2.52 2.74 2.46 2.75 2.81 3.04 2.88 2.76 2.63 2.50 3.12
0.30 0.45 0.61 0.83 0.63 0.54 0.29 0.08 0.07 0.17 0.60 0.83 1.01 1.80 1.50 1.88 1.63 1.33 1.06 1.18 1.05 0.99 1.04 1.15 1.20 1.36 1.42 1.08 1.23 1.24 1.28 1.87 2.16 1.66 1.66 1.97 2.09 1.95 1.95 1.84 2.02 2.21 2.24 2.10
0.57 0.58 0.23 0.14 0.17 0.66 0.51 0.18 0.15 0.29 0.22 0.50 0.76 0.69 1.02 1.77 1.97 1.82 1.76 1.25 1.11 1.00 0.92 1.00 1.54 1.25 1.25 1.30 1.15 1.13 1.34 1.43 1.70 1.63 1.52 1.58 1.87 1.98 1.52 1.37 1.39 1.76 1.73 1.80
0.91 0.91 0.32 0.17 0.09 0.42 0.45 0.15 0.11 0.14 0.17 0.33 0.49 0.45 1.04 0.82 0.56 0.53 0.64 0.96 0.84 0.96 0.87 0.74 1.03 1.58 0.96 0.78 0.94 0.91 1.05 1.25 1.21 1.33 1.33 1.34 1.27 1.31 1.34 1.33 1.17 1.21 1.43 1.59
1.03 1.29 1.43 1.02 0.20 0.83 1.38 0.77 0.50 0.36 0.45 0.31 0.43 0.62 0.80 0.43 0.19 0.13 0.11 0.20 0.39 0.50 0.60 0.51 0.59 1.28 1.24 0.98 0.91 0.74 0.91 1.07 1.03 1.17 1.27 1.15 1.06 1.04 1.11 1.07 0.98 0.94 1.10 1.27
0.94 1.24 2.00 1.77 1.22 2.77 1.33 0.65 0.68 0.89 0.67 0.78 0.73 0.76 0.54 0.29 0.22 0.16 0.18 0.16 0.18 0.22 0.36 0.60 0.75 1.11 1.23 0.85 0.69 0.62 0.70 0.97 0.97 0.95 1.03 1.09 0.99 0.93 0.98 0.89 0.88 0.85 0.86 0.89
0.42 0.98 2.71 3.02 2.38 1.50 0.46 0.25 0.30 0.52 0.46 0.35 0.52 0.51 0.27 0.16 0.20 0.21 0.17 0.26 0.28 0.34 0.47 0.60 0.67 0.76 1.17 1.16 0.91 0.92 0.83 0.95 1.08 1.00 1.05 1.07 0.98 0.85 0.92 0.99 1.08 1.05 0.96 0.86
0.33 0.74 2.36 3.70 3.16 1.52 0.54 0.32 0.14 0.39 0.79 0.43 0.36 0.36 0.26 0.22 0.47 0.67 0.59 0.57 0.49 0.57 0.47 0.42 0.40 0.54 0.95 1.29 1.17 1.49 1.30 1.23 1.22 1.10 1.09 1.09 1.05 1.11 1.14 1.14 1.19 1.20 1.07 1.04
0.70 1.27 2.13 2.16 3.05 1.59 0.20 0.23 0.34 1.30 1.40 0.73 0.50 0.52 0.47 0.61 0.67 0.69 0.55 0.35 0.42 0.44 0.56 0.57 0.60 0.55 0.54 1.05 1.40 1.61 1.86 1.69 1.59 1.46 1.28 1.44 1.31 1.11 0.97 0.94 0.85 1.04 1.08 1.10
1.08 1.51 1.64 1.63 2.39 1.81 0.24 0.34 0.99 1.68 1.01 0.85 0.75 0.52 0.50 0.73 0.80 0.63 0.59 0.51 0.64 0.80 0.81 0.75 0.52 0.35 0.50 0.64 1.12 1.46 1.83 1.95 1.87 2.01 1.95 1.75 2.03 1.83 1.52 1.22 1.02 0.88 1.23 1.66
1.38 1.12 1.44 1.30 1.25 0.69 0.50 0.57 0.45 0.27 0.23 0.23 0.51 0.69 0.72 0.59 0.71 0.93 1.42 1.04 0.82 0.88 0.95 0.74 0.50 0.42 0.46 0.60 0.88 1.26 1.57 1.51 1.68 1.85 2.21 2.25 2.10 2.16 1.87 1.66 1.47 1.37 1.22 1.27
1.20 0.91 1.69 1.65 0.95 0.42 0.41 0.39 0.22 0.26 0.35 0.28 0.39 0.46 0.60 0.62 0.47 0.54 0.71 0.82 0.92 1.42 1.16 0.82 0.65 0.70 0.81 0.85 1.07 1.55 1.71 1.65 1.65 1.66 1.54 1.52 1.70 1.84 1.96 2.05 2.02 1.91 1.94 1.93
0.89 1.24 1.85 1.85 1.20 0.79 0.51 0.50 0.59 0.48 0.46 0.46 0.45 0.46 0.49 0.63 0.51 0.54 0.73 0.55 0.57 0.72 0.80 0.99 0.99 1.11 1.27 1.49 1.72 1.85 1.61 1.23 1.03 0.83 0.69 0.69 0.91 1.17 1.46 1.91 2.49 2.55 2.82 2.84
0.49 1.12 1.70 2.40 1.71 1.74 1.25 0.87 0.82 0.86 0.53 0.28 0.31 0.44 0.66 0.71 0.59 0.40 0.45 0.46 0.46 0.53 0.70 0.87 1.03 1.15 1.35 1.33 1.36 1.26 1.23 0.95 0.60 0.52 0.51 0.61 0.61 0.78 1.06 1.44 2.06 2.86 3.26 3.28